When you browse on this site, cookies collect data to enhance your experience and personalize the content and advertising you see.
Visit our Privacy Policy to learn more. By continuing to use the site, you agree to this use of cookies and data.
  • In Hungary
  • List of Countries
  • For 7 days
  • Water Temperature
  • Satellite Maps
  • Weather Map
  • News
  • Weather Widgets
  • user-avatar
    Login

    Hourly Weather Vyzhnytsya

    Today, 17 July, Wednesday

    Time Temperature Precipitation Wind Pressure Humidity
    00:00 +17°C° 0 mm 3 mps 715 mmHg 88%
    01:00 +16°C° 0 mm 2 mps 715 mmHg 84%
    02:00 +14°C° 0.3 mm 4 mps 715 mmHg 98%
    03:00 +15°C° 0.1 mm 2 mps 715 mmHg 98%
    04:00 +15°C° 0 mm 2 mps 715 mmHg 96%
    05:00 +14°C° 0.1 mm 1 mps 715 mmHg 98%
    06:00 +15°C° 0 mm 2 mps 715 mmHg 95%
    07:00 +16°C° 0 mm 3 mps 716 mmHg 92%
    08:00 +15°C° 0 mm 4 mps 716 mmHg 94%
    09:00 +15°C° 0 mm 4 mps 716 mmHg 95%
    10:00 +17°C° 0 mm 3 mps 716 mmHg 92%
    11:00 +18°C° 0 mm 3 mps 716 mmHg 89%
    12:00 +18°C° 0 mm 4 mps 716 mmHg 87%
    13:00 +19°C° 0 mm 3 mps 716 mmHg 86%
    14:00 +19°C° 0.1 mm 2 mps 716 mmHg 86%
    15:00 +20°C° 0.7 mm 1 mps 716 mmHg 83%
    16:00 +18°C° 0 mm 0 mps 715 mmHg 84%
    17:00 +19°C° 0.2 mm 0 mps 715 mmHg 88%
    18:00 +21°C° 0 mm 1 mps 715 mmHg 86%
    19:00 +18°C° 4.1 mm 3 mps 715 mmHg 100%
    20:00 +17°C° 0.5 mm 0 mps 715 mmHg 98%
    21:00 +19°C° 0 mm 1 mps 716 mmHg 96%
    22:00 +19°C° 0 mm 1 mps 716 mmHg 94%
    23:00 +18°C° 0 mm 1 mps 716 mmHg 92%

    Tomorrow, 18 July, Thursday

    Time Temperature Precipitation Wind Pressure Humidity
    00:00 +17°C° 0 mm 2 mps 716 mmHg 90%
    01:00 +16°C° 0 mm 2 mps 716 mmHg 90%
    02:00 +15°C° 0 mm 1 mps 716 mmHg 88%
    03:00 +15°C° 0 mm 1 mps 716 mmHg 86%
    04:00 +15°C° 0 mm 1 mps 716 mmHg 86%
    05:00 +14°C° 0 mm 1 mps 716 mmHg 87%
    06:00 +14°C° 0 mm 1 mps 716 mmHg 91%
    07:00 +15°C° 0 mm 2 mps 717 mmHg 92%
    08:00 +16°C° 0 mm 2 mps 717 mmHg 92%
    09:00 +17°C° 0 mm 2 mps 717 mmHg 92%
    10:00 +18°C° 0 mm 2 mps 718 mmHg 91%
    11:00 +18°C° 0 mm 3 mps 718 mmHg 88%
    12:00 +19°C° 0 mm 3 mps 718 mmHg 88%
    13:00 +19°C° 0 mm 3 mps 718 mmHg 85%
    14:00 +19°C° 0 mm 3 mps 718 mmHg 87%
    15:00 +19°C° 0.1 mm 3 mps 718 mmHg 86%
    16:00 +19°C° 0 mm 3 mps 718 mmHg 87%
    17:00 +18°C° 1.2 mm 2 mps 718 mmHg 94%
    18:00 +20°C° 0 mm 1 mps 718 mmHg 88%
    19:00 +20°C° 0 mm 1 mps 718 mmHg 89%
    20:00 +19°C° 0 mm 1 mps 718 mmHg 93%
    21:00 +17°C° 0 mm 0 mps 719 mmHg 87%
    22:00 +16°C° 0 mm 0 mps 719 mmHg 90%
    23:00 +18°C° 0 mm 1 mps 719 mmHg 92%

    Day after tomorrow, 19 July, Friday

    Time Temperature Precipitation Wind Pressure Humidity
    00:00 +18°C° 0 mm 1 mps 719 mmHg 90%
    01:00 +18°C° 0 mm 1 mps 719 mmHg 90%
    02:00 +18°C° 0 mm 1 mps 719 mmHg 92%
    03:00 +16°C° 0 mm 1 mps 719 mmHg 94%
    04:00 +16°C° 0 mm 1 mps 719 mmHg 93%
    05:00 +16°C° 0 mm 1 mps 719 mmHg 92%
    06:00 +16°C° 0 mm 1 mps 719 mmHg 93%
    07:00 +15°C° 0 mm 0 mps 719 mmHg 95%
    08:00 +17°C° 0 mm 0 mps 719 mmHg 91%
    09:00 +18°C° 0 mm 0 mps 720 mmHg 92%
    10:00 +19°C° 0 mm 0 mps 720 mmHg 91%
    11:00 +22°C° 0 mm 1 mps 720 mmHg 89%
    12:00 +23°C° 0 mm 2 mps 720 mmHg 86%
    13:00 +24°C° 0 mm 3 mps 719 mmHg 84%
    14:00 +23°C° 0 mm 4 mps 719 mmHg 87%

    20 July, Saturday

    Time Temperature Precipitation Wind Pressure Humidity

    21 July, Sunday

    Time Temperature Precipitation Wind Pressure Humidity

    22 July, Monday

    Time Temperature Precipitation Wind Pressure Humidity
    Show more